O'Neill, NE

11:08 AM CDT on May 26, 2017 (GMT -0500)
The O'Neill Municipal-Baker

Weather History for KONL - November, 2015

Change the Weather History Date:

Monday, November 9, 2015

  Actual Average Record
Temperature  
Mean Temperature 50 °F -  
Max Temperature 63 °F 44 °F 78 °F (2001)
Min Temperature 36 °F 26 °F 10 °F (1960)
Degree Days  
Heating Degree Days 16    
Moisture  
Dew Point 37 °F    
Average Humidity 66    
Maximum Humidity 91    
Minimum Humidity 41    
Precipitation  
Precipitation 0.00 in - - ()
Sea Level Pressure  
Sea Level Pressure 29.95 in    
Wind  
Wind Speed 12 mph (South)    
Max Wind Speed 20 mph    
Max Gust Speed 29 mph    
Visibility 10 miles    
Events      
Averages and records for this station are not official NWS values.
T = Trace of Precipitation, MM = Missing Value Source: NWS Daily Summary

Daily Weather History Graph

Daily Weather History Graph

Search for Another Location

Airport or City:

Trip Planner

Search our weather history database for the weather conditions in past years. The results will help you decide how hot, cold, wet, or windy it might be!

Date:

Astronomy

Nov. 09, 2015 Rise Set
Actual Time 7:18 AM CST 5:18 PM CST
Civil Twilight 6:48 AM CST 5:48 PM CST
Nautical Twilight 6:14 AM CST 6:22 PM CST
Astronomical Twilight 5:41 AM CST 6:54 PM CST
Moon 5:09 AM CST (11/9) 4:33 PM CST (11/9)
Length of Visible Light 11h 00m
Length of Day
10h 00m
Waning Crescent, 4% of the Moon is Illuminated
Nov 9
Waning Crescent
Nov 11
New
Nov 19
First Quarter
Nov 25
Full
Dec 3
Last Quarter

Hourly Weather History & Observations

Time (CST) Temp. Windchill Dew Point Humidity Pressure Visibility Wind Dir Wind Speed Gust Speed Precip Events Conditions
12:15 AM 45.5 °F 40.8 °F 36.9 °F 72% 30.01 in 10.0 mi South 9.2 mph - N/A   Clear
12:35 AM 44.6 °F 40.2 °F 36.7 °F 74% 30.01 in 10.0 mi South 8.1 mph - N/A   Clear
12:55 AM 43.7 °F 38.6 °F 36.5 °F 76% 30.00 in 10.0 mi South 9.2 mph - N/A   Clear
1:15 AM 43.7 °F 37.3 °F 36.5 °F 76% 30.00 in 10.0 mi South 12.7 mph - N/A   Clear
1:35 AM 43.0 °F 36.8 °F 36.1 °F 77% 30.00 in 10.0 mi South 11.5 mph - N/A   Clear
1:55 AM 43.0 °F 36.0 °F 36.0 °F 76% 30.00 in 10.0 mi South 13.8 mph - N/A   Clear
2:15 AM 42.8 °F 35.8 °F 36.0 °F 77% 30.00 in 10.0 mi South 13.8 mph - N/A   Clear
2:35 AM 42.1 °F 34.9 °F 35.6 °F 78% 30.00 in 10.0 mi South 13.8 mph - N/A   Clear
2:55 AM 42.3 °F 35.1 °F 35.6 °F 77% 29.99 in 10.0 mi South 13.8 mph - N/A   Clear
3:15 AM 41.2 °F 35.0 °F 35.6 °F 81% 29.99 in 10.0 mi South 10.4 mph - N/A   Clear
3:35 AM 40.6 °F 34.3 °F 35.2 °F 81% 29.98 in 10.0 mi South 10.4 mph - N/A   Clear
3:55 AM 40.6 °F 33.8 °F 35.2 °F 81% 29.98 in 10.0 mi South 11.5 mph - N/A   Clear
4:15 AM 40.1 °F 34.1 °F 34.9 °F 82% 29.98 in 10.0 mi South 9.2 mph - N/A   Clear
4:35 AM 39.4 °F 33.8 °F 34.7 °F 83% 29.98 in 10.0 mi South 8.1 mph - N/A   Clear
4:55 AM 39.7 °F 33.2 °F 34.9 °F 83% 29.98 in 10.0 mi South 10.4 mph - N/A   Clear
5:15 AM 39.7 °F 33.7 °F 34.9 °F 83% 29.98 in 10.0 mi South 9.2 mph - N/A   Clear
5:35 AM 39.4 °F 32.7 °F 34.7 °F 83% 29.98 in 10.0 mi South 10.4 mph - N/A   Clear
5:55 AM 38.8 °F 32.1 °F 34.7 °F 85% 29.98 in 10.0 mi South 10.4 mph - N/A   Clear
6:15 AM 38.8 °F 32.6 °F 34.7 °F 85% 29.98 in 10.0 mi South 9.2 mph - N/A   Clear
6:35 AM 38.3 °F 31.9 °F 34.3 °F 86% 29.98 in 10.0 mi SSW 9.2 mph - N/A   Clear
6:55 AM 37.4 °F 30.8 °F 34.2 °F 88% 29.98 in 10.0 mi South 9.2 mph - N/A   Clear
7:15 AM 37.0 °F 30.4 °F 34.2 °F 89% 29.98 in 10.0 mi South 9.2 mph - N/A   Clear
7:35 AM 36.9 °F 29.6 °F 34.3 °F 91% 29.99 in 10.0 mi South 10.4 mph - N/A   Clear
7:55 AM 37.8 °F 31.3 °F 35.1 °F 90% 30.00 in 10.0 mi South 9.2 mph - N/A   Clear
8:15 AM 39.2 °F 31.6 °F 35.2 °F 86% 30.00 in 10.0 mi South 12.7 mph - N/A   Clear
8:35 AM 41.0 °F 33.9 °F 35.8 °F 82% 30.00 in 10.0 mi South 12.7 mph - N/A   Clear
8:55 AM 42.8 °F 35.8 °F 36.5 °F 78% 30.01 in 10.0 mi South 13.8 mph - N/A   Clear
9:15 AM 45.1 °F 39.1 °F 37.0 °F 73% 30.01 in 10.0 mi SSW 12.7 mph - N/A   Clear
9:35 AM 46.9 °F - 37.2 °F 69% 30.00 in 10.0 mi SSW 16.1 mph - N/A   Clear
9:55 AM 48.6 °F - 37.4 °F 65% 30.00 in 10.0 mi South 12.7 mph - N/A   Clear
10:15 AM 50.5 °F - 37.6 °F 61% 30.00 in 10.0 mi South 15.0 mph 18.4 mph N/A   Clear
10:35 AM 52.0 °F - 37.9 °F 59% 30.00 in 10.0 mi South 13.8 mph 19.6 mph N/A   Clear
10:55 AM 53.4 °F - 38.3 °F 57% 29.99 in 10.0 mi South 13.8 mph - N/A   Clear
11:15 AM 54.7 °F - 38.7 °F 55% 29.99 in 10.0 mi South 13.8 mph 18.4 mph N/A   Clear
11:35 AM 56.1 °F - 39.2 °F 53% 29.98 in 10.0 mi SSW 12.7 mph - N/A   Clear
11:55 AM 57.0 °F - 39.6 °F 52% 29.97 in 10.0 mi South 10.4 mph 18.4 mph N/A   Clear
12:15 PM 58.1 °F - 39.7 °F 50% 29.97 in 10.0 mi South 12.7 mph 18.4 mph N/A   Clear
12:35 PM 59.2 °F - 40.3 °F 50% 29.96 in 10.0 mi South 13.8 mph - N/A   Clear
12:55 PM 60.4 °F - 40.8 °F 48% 29.95 in 10.0 mi South 15.0 mph - N/A   Clear
1:15 PM 60.4 °F - 40.3 °F 47% 29.95 in 10.0 mi South 15.0 mph - N/A   Clear
1:35 PM 61.7 °F - 40.8 °F 46% 29.95 in 10.0 mi South 16.1 mph 21.9 mph N/A   Clear
1:55 PM 61.7 °F - 40.5 °F 46% 29.93 in 10.0 mi SSW 17.3 mph 23.0 mph N/A   Clear
2:15 PM 62.1 °F - 40.1 °F 44% 29.93 in 10.0 mi South 18.4 mph 24.2 mph N/A   Clear
2:35 PM 62.6 °F - 39.4 °F 42% 29.92 in 10.0 mi South 17.3 mph 27.6 mph N/A   Clear
2:55 PM 63.1 °F - 39.0 °F 41% 29.92 in 10.0 mi South 19.6 mph 23.0 mph N/A   Clear
3:15 PM 63.0 °F - 39.4 °F 42% 29.92 in 10.0 mi South 18.4 mph 26.5 mph N/A   Clear
3:35 PM 61.7 °F - 38.3 °F 42% 29.92 in 10.0 mi South 16.1 mph 28.8 mph N/A   Clear
3:55 PM 61.3 °F - 38.3 °F 43% 29.91 in 10.0 mi South 15.0 mph 25.3 mph N/A   Clear
4:15 PM 60.8 °F - 39.2 °F 45% 29.91 in 10.0 mi South 15.0 mph 19.6 mph N/A   Clear
4:35 PM 60.1 °F - 39.0 °F 46% 29.91 in 10.0 mi South 11.5 mph 18.4 mph N/A   Clear
4:55 PM 58.1 °F - 38.7 °F 48% 29.90 in 10.0 mi South 10.4 mph - N/A   Clear
5:15 PM 56.5 °F - 38.7 °F 51% 29.90 in 10.0 mi South 10.4 mph - N/A   Clear
5:35 PM 54.7 °F - 38.7 °F 55% 29.90 in 10.0 mi South 10.4 mph - N/A   Clear
5:55 PM 54.0 °F - 38.3 °F 55% 29.90 in 10.0 mi South 10.4 mph - N/A   Clear
6:15 PM 51.4 °F - 38.3 °F 61% 29.90 in 10.0 mi SSE 9.2 mph - N/A   Clear
6:35 PM 51.4 °F - 38.5 °F 61% 29.90 in 10.0 mi SSE 10.4 mph - N/A   Clear
6:55 PM 51.1 °F - 38.5 °F 62% 29.91 in 10.0 mi SSE 10.4 mph - N/A   Clear
7:15 PM 50.2 °F - 38.7 °F 65% 29.91 in 10.0 mi SSE 10.4 mph - N/A   Clear
7:35 PM 50.0 °F - 38.8 °F 66% 29.91 in 10.0 mi SSE 10.4 mph - N/A   Clear
7:55 PM 49.3 °F - 38.8 °F 67% 29.91 in 10.0 mi SSE 11.5 mph - N/A   Clear
8:15 PM 49.5 °F - 38.8 °F 67% 29.90 in 10.0 mi SSE 12.7 mph - N/A   Clear
8:35 PM 49.5 °F - 38.7 °F 66% 29.90 in 10.0 mi SSE 12.7 mph - N/A   Clear
8:55 PM 49.3 °F - 38.7 °F 67% 29.90 in 10.0 mi SSE 12.7 mph - N/A   Clear
9:15 PM 49.8 °F - 38.7 °F 65% 29.90 in 10.0 mi South 12.7 mph - N/A   Clear
9:35 PM 50.9 °F - 38.7 °F 63% 29.90 in 10.0 mi South 12.7 mph - N/A   Clear
9:55 PM 50.9 °F - 38.3 °F 62% 29.90 in 10.0 mi SSE 13.8 mph - N/A   Clear
10:15 PM 50.9 °F - 38.3 °F 62% 29.90 in 10.0 mi South 15.0 mph 18.4 mph N/A   Clear
10:35 PM 51.1 °F - 37.9 °F 61% 29.90 in 10.0 mi South 15.0 mph - N/A   Clear
10:55 PM 50.9 °F - 37.8 °F 61% 29.90 in 10.0 mi South 13.8 mph 19.6 mph N/A   Clear
11:15 PM 50.9 °F - 37.8 °F 61% 29.90 in 10.0 mi South 13.8 mph 20.7 mph N/A   Clear
11:35 PM 50.7 °F - 37.8 °F 61% 29.90 in 10.0 mi South 13.8 mph 20.7 mph N/A   Scattered Clouds
11:55 PM 50.4 °F - 37.6 °F 62% 29.89 in 10.0 mi South 15.0 mph - N/A   Scattered Clouds